Baker, MT

3:36 AM MDT on July 27, 2017 (GMT -0600)
Baker Municipal

Weather History for KBHK - September, 2013

Change the Weather History Date:

Saturday, September 21, 2013

  Actual Average Record
Temperature  
Mean Temperature 60 °F -  
Max Temperature 80 °F 66 °F 81 °F (2001)
Min Temperature 39 °F 44 °F 30 °F (1999)
Degree Days  
Heating Degree Days 6    
Growing Degree Days 10 (Base 50)    
Moisture  
Dew Point 39 °F    
Average Humidity 53    
Maximum Humidity 79    
Minimum Humidity 22    
Precipitation  
Precipitation 0.00 in - - ()
Sea Level Pressure  
Sea Level Pressure 29.73 in    
Wind  
Wind Speed 11 mph (SE)    
Max Wind Speed 20 mph    
Max Gust Speed 18 mph    
Visibility 10 miles    
Events      
Averages and records for this station are not official NWS values.
T = Trace of Precipitation, MM = Missing Value Source: NWS Daily Summary

Daily Weather History Graph

Daily Weather History Graph

Search for Another Location

Airport or City:

Trip Planner

Search our weather history database for the weather conditions in past years. The results will help you decide how hot, cold, wet, or windy it might be!

Date:

Astronomy

Sep. 21, 2013 Rise Set
Actual Time 6:43 AM MDT 6:56 PM MDT
Civil Twilight 6:12 AM MDT 7:26 PM MDT
Nautical Twilight 5:37 AM MDT 8:01 PM MDT
Astronomical Twilight 5:01 AM MDT 8:37 PM MDT
Moon 7:56 PM MDT (9/21) 9:14 AM MDT (9/21)
Length of Visible Light 13h 13m
Length of Day
12h 13m
Waning Gibbous, 94% of the Moon is Illuminated
Sep 21
Waning Gibbous
Sep 26
Last Quarter
Oct 4
New
Oct 11
First Quarter
Oct 18
Full

Hourly Weather History & Observations

Time (MDT) Temp. Windchill Dew Point Humidity Pressure Visibility Wind Dir Wind Speed Gust Speed Precip Events Conditions
12:51 AM 45.0 °F 40.1 °F 36.0 °F 71% 29.89 in 10.0 mi ESE 9.2 mph - N/A   Clear
1:51 AM 45.0 °F 39.7 °F 36.0 °F 71% 29.87 in 10.0 mi ESE 10.4 mph - N/A   Clear
2:51 AM 45.0 °F 39.7 °F 36.0 °F 71% 29.84 in 10.0 mi SE 10.4 mph - N/A   Clear
3:51 AM 46.0 °F 39.3 °F 35.1 °F 66% 29.81 in 10.0 mi ESE 16.1 mph - N/A   Clear
4:51 AM 44.1 °F 38.1 °F 35.1 °F 71% 29.81 in 10.0 mi East 11.5 mph - N/A   Clear
5:51 AM 41.0 °F 37.1 °F 34.0 °F 76% 29.81 in 10.0 mi East 5.8 mph - N/A   Clear
6:51 AM 39.9 °F 34.5 °F 34.0 °F 79% 29.83 in 10.0 mi ESE 8.1 mph - N/A   Clear
7:51 AM 46.9 °F - 36.0 °F 66% 29.83 in 10.0 mi SE 8.1 mph - N/A   Clear
8:51 AM 54.0 °F - 35.1 °F 49% 29.81 in 10.0 mi SE 19.6 mph - N/A   Clear
9:51 AM 59.0 °F - 37.0 °F 44% 29.80 in 10.0 mi SE 15.0 mph - N/A   Clear
10:51 AM 64.0 °F - 39.0 °F 40% 29.77 in 10.0 mi SE 17.3 mph - N/A   Clear
11:51 AM 70.0 °F - 39.0 °F 32% 29.75 in 10.0 mi SSE 12.7 mph 18.4 mph N/A   Clear
12:51 PM 73.0 °F - 39.0 °F 29% 29.72 in 10.0 mi ESE 13.8 mph - N/A   Clear
1:51 PM 75.9 °F - 39.9 °F 27% 29.69 in 10.0 mi SE 16.1 mph - N/A   Clear
2:51 PM 78.1 °F - 36.0 °F 22% 29.67 in 10.0 mi SSE 17.3 mph - N/A   Clear
3:51 PM 79.0 °F - 39.0 °F 24% 29.64 in 10.0 mi SSE 15.0 mph - N/A   Clear
4:51 PM 80.1 °F - 41.0 °F 25% 29.63 in 10.0 mi SSE 13.8 mph - N/A   Clear
5:51 PM 78.1 °F - 39.0 °F 25% 29.63 in 10.0 mi SE 9.2 mph - N/A   Clear
6:51 PM 66.0 °F - 42.1 °F 42% 29.65 in 10.0 mi SE 6.9 mph - N/A   Clear
7:51 PM 57.9 °F - 43.0 °F 58% 29.65 in 10.0 mi ESE 6.9 mph - N/A   Clear
8:51 PM 55.9 °F - 44.1 °F 64% 29.63 in 10.0 mi SE 9.2 mph - N/A   Clear
9:51 PM 55.9 °F - 44.1 °F 64% 29.63 in 10.0 mi ESE 9.2 mph - N/A   Clear
10:51 PM 55.9 °F - 46.0 °F 69% 29.61 in 10.0 mi SE 12.7 mph - N/A   Clear
11:51 PM 52.0 °F - 45.0 °F 77% 29.59 in 10.0 mi SE 9.2 mph - N/A   Clear